Bisha, Saudi Arabia

5:23 PM +03 on April 30, 2017 (GMT +0300)
Bisha

Weather History for OEBH - November, 2012

Change the Weather History Date:

Wednesday, November 7, 2012

  Actual Average Record
Temperature  
Mean Temperature 68 °F -  
Max Temperature 84 °F 82 °F 91 °F (1999)
Min Temperature 52 °F 54 °F 50 °F (1996)
Cooling Degree Days 3    
Growing Degree Days 18 (Base 50)    
Moisture  
Dew Point 31 °F    
Average Humidity 21    
Maximum Humidity 35    
Minimum Humidity 8    
Precipitation  
Precipitation 0.00 in - - ()
Sea Level Pressure  
Sea Level Pressure 30.09 in    
Wind  
Wind Speed 3 mph ()    
Max Wind Speed 14 mph    
Max Gust Speed -    
Visibility 6.1 miles    
Events      
Averages and records for this station are not official NWS values.
T = Trace of Precipitation, MM = Missing Value Source: Averaged Metar Reports

Daily Weather History Graph

Daily Weather History Graph

Search for Another Location

Airport or City:

Trip Planner

Search our weather history database for the weather conditions in past years. The results will help you decide how hot, cold, wet, or windy it might be!

Date:

Astronomy

Nov. 07, 2012 Rise Set
Actual Time 6:13 AM +03 5:32 PM +03
Civil Twilight 5:51 AM +03 5:55 PM +03
Nautical Twilight 5:24 AM +03 6:21 PM +03
Astronomical Twilight 4:58 AM +03 6:47 PM +03
Moon No Moon Rise 12:37 PM +03 (11/7)
Length of Visible Light 12h 04m
Length of Day
11h 18m
Waning Gibbous, 46% of the Moon is Illuminated
Nov 7
Waning Gibbous
Nov 14
New
Nov 20
First Quarter
Nov 28
Full
Dec 6
Last Quarter

Hourly Weather History & Observations

Time (+03) Temp. Dew Point Humidity Pressure Visibility Wind Dir Wind Speed Gust Speed Precip Events Conditions
12:00 AM 64 °F 28 °F 15%  in 6 mi Calm Calm - -  
12:00 AM 64.4 °F 28.4 °F 26% 30.12 in - Calm Calm - N/A   Clear
1:00 AM 62.6 °F 30.2 °F 30% 30.12 in - Calm Calm - N/A   Clear
2:00 AM 59.0 °F 26.6 °F 29% 30.09 in - Calm Calm - N/A   Clear
3:00 AM 59 °F 30 °F 22%  in 6 mi Calm Calm - -  
3:00 AM 59.0 °F 30.2 °F 34% 30.09 in - Calm Calm - N/A   Clear
4:00 AM 55.4 °F 24.8 °F 31% 30.09 in - Calm Calm - N/A   Clear
5:00 AM 53.6 °F 26.6 °F 35% 30.09 in - Calm Calm - N/A   Clear
6:00 AM 55 °F 27 °F 21%  in 6 mi Calm Calm - -  
6:00 AM 55.4 °F 26.6 °F 33% 30.12 in - Calm Calm - N/A   Clear
7:00 AM 57.2 °F 24.8 °F 29% 30.12 in - SW 3.5 mph - N/A   Clear
8:00 AM 62.6 °F 28.4 °F 27% 30.15 in - SW 3.5 mph - N/A   Clear
9:00 AM 75 °F 34 °F 13%  in 6 mi South 3.5 mph - -   Scattered Clouds
9:00 AM 75.2 °F 33.8 °F 22% 30.15 in - South 3.5 mph - N/A   Clear
10:00 AM 77.0 °F 37.4 °F 24% 30.15 in - SSW 3.5 mph - N/A   Clear
11:00 AM 80.6 °F 33.8 °F 18% 30.12 in - SE 6.9 mph - N/A   Clear
12:00 PM 81 °F 34 °F 10%  in 6 mi South 6.9 mph - -   Scattered Clouds
12:00 PM 80.6 °F 33.8 °F 18% 30.09 in 6.2 mi South 6.9 mph - N/A   Partly Cloudy
1:00 PM 84.2 °F 32.0 °F 15% 30.06 in 6.2 mi ESE 2.3 mph - N/A   Partly Cloudy
2:00 PM 84.2 °F 32.0 °F 15% 30.04 in 6.2 mi ENE 4.6 mph - N/A   Partly Cloudy
3:00 PM 83 °F 32 °F 8%  in 6 mi SSE 4.6 mph - -   Scattered Clouds
3:00 PM 84.2 °F 32.0 °F 15% 30.04 in 6.2 mi SSE 4.6 mph - N/A   Partly Cloudy
4:00 PM 80.6 °F 30.2 °F 16% 30.04 in 6.2 mi ESE 5.8 mph - N/A   Partly Cloudy
5:00 PM 80.6 °F 30.2 °F 16% 30.04 in 6.2 mi ESE 12.7 mph - N/A   Partly Cloudy
6:00 PM 78 °F 28 °F 8%  in 6 mi East 12.7 mph - -   Scattered Clouds
6:00 PM 77.0 °F 28.4 °F 17% 30.04 in 6.2 mi East 12.7 mph - N/A   Scattered Clouds
7:00 PM 77.0 °F 32.0 °F 19% 30.06 in 6.2 mi ENE 9.2 mph - N/A   Scattered Clouds
8:00 PM 75.2 °F 32.0 °F 21% 30.09 in 6.2 mi ENE 13.8 mph - N/A   Scattered Clouds
9:00 PM 75 °F 34 °F 13%  in 6 mi ENE 13.8 mph - -   Mostly Cloudy
9:00 PM 75.2 °F 33.8 °F 22% 30.09 in 6.2 mi ENE 13.8 mph - N/A   Scattered Clouds
10:00 PM 73.4 °F 33.8 °F 23% 30.09 in 6.2 mi East 13.8 mph - N/A   Scattered Clouds
11:00 PM 73.4 °F 35.6 °F 25% 30.09 in 6.2 mi East 11.5 mph - N/A   Scattered Clouds